Regional Weather Roundup
Issued by NWS Green Bay, WI

Home | Current Version | Previous Version | Graphics & Text | Print | Product List | Glossary Off
Versions: 1 2 3 4 5 6 7 8 9 10 11 12 13 14 15 16 17 18 19 20 21 22 23 24 25 26 27 28 29 30 31 32 33 34 35 36 37 38 39 40 41 42 43 44 45 46 47 48 49 50

000
ASUS43 KGRB 021500
RWRGRB

NORTH-CENTRAL AND NORTHEAST WISCONSIN REGIONAL WEATHER ROUNDUP
NATIONAL WEATHER SERVICE GREEN BAY WI
1000 AM CDT SUN AUG 02 2015

WIZ005-009-010>012-018-019-021600-
NORTH CENTRAL WISCONSIN

CITY           SKY/WX    TMP DP  RH WIND       PRES   REMARKS
IRONWOOD       PTSUNNY   66  63  88 SE7       29.58F
MANITOWISH WTR NOT AVBL
ARBOR VITAE    NOT AVBL
EAGLE RIVER    NOT AVBL
LAND O LAKES   NOT AVBL
RHINELANDER    CLOUDY    70  62  76 VRB6      29.68S
PHILLIPS       CLOUDY    64  64  99 N3        29.68S
ANTIGO         NOT AVBL
TOMAHAWK       NOT AVBL
MERRILL        NOT AVBL
$$

WIZ013-073-021600-
NORTHEAST WISCONSIN

CITY           SKY/WX    TMP DP  RH WIND       PRES   REMARKS
IRON MOUNTAIN  CLOUDY    65  62  90 SE5       29.61F
MARINETTE      CLOUDY    72  64  78 N7        29.64F
$$

WIZ017-030-035>037-045-021600-
CENTRAL WISCONSIN

CITY           SKY/WX    TMP DP  RH WIND       PRES   REMARKS
MEDFORD        NOT AVBL
WAUSAU         CLOUDY    73  68  84 SW10      29.66F
MOSINEE        NOT AVBL
MARSHFIELD     MOSUNNY   78  65  63 SW15      29.68F
WISC RAPIDS    MOSUNNY   81  65  58 W15G23    29.70F
STEVENS POINT  NOT AVBL
WAUPACA        NOT AVBL
SHAWANO        NOT AVBL
CLINTONVILLE   CLOUDY    72  68  88 SW7       29.67F
$$

WIZ038-039-048-051-021600-
FOX VALLEY

CITY           SKY/WX    TMP DP  RH WIND       PRES   REMARKS
NWS GREEN BAY  CLOUDY    75  68  78 S3        29.67F
APPLETON       PTSUNNY   75  66  73 SW12      29.72S
OSHKOSH        PTSUNNY   78  68  71 W7G16     29.72R
FOND DU LAC    PTSUNNY   79  70  74 W13       29.73R
$$

WIZ022-050-052-021600-
EAST CENTRAL WISCONSIN

CITY           SKY/WX    TMP DP  RH WIND       PRES   REMARKS
STURGEON BAY   PTSUNNY   73  66  78 SW8       29.70F THUNDER
MANITOWOC      NOT AVBL
SHEBOYGAN      LGT RAIN  78  69  73 W15       29.72S
$$

LMZ563-521-522-541>543-021600-
LAKESHORE

STATION/POSITION TIME  TEMP    WIND        PRES    VSBY  WAVE
                       AIR SEA DIR/SP/G                  HT/PER
                 (UTC) (F)     (DEG/KT/KT) (MB)    (MI)  (FT/S)
SHEBOYGAN LKSHOR 1400   78     240/ 20/ 26 1006.2F
KEWAUNEE LKSHORE 1400   77     260/ 13/ 18 1004.8S
ALGOMA MARINA    1442          260/ 10/ 18   N/A
NORTHPORT PIER   1400   73     310/  9/ 18 1005.1R
N MID LAKE BUOY  1350   69 68  250/ 12/ 17 1004.4R         2/ 4
S GREEN BAY BUOY 1430   69 64  250/  8/ 10 1007.0R
SISTER BAY LKSHO 1414   73     260/ 16/ 19   N/A
CHAMBERS ISLAND  1400   71     210/  6/ 11 1005.4R
MENOMINEE LKSHOR 1400   75     250/ 13/ 18 1006.1R
$$


USA.gov is the U.S. government's official web portal to all federal, state and local government web resources and services.